SWA35 KABQ-KBUR

Flight info

Callsign SWA35
Flight time 1h 48m
Altitude 38000
Route ADYOS3 ZUN J6 DRK EED JANNY5
Aircraft B38M/M-SDE1FGHILORVWXY/HB1

Departure

Time 2026-05-05 21:24
Airport Albuquerque International Sunport (KABQ)

Arrival

Time 2026-05-05 23:12
Airport Hollywood Burbank/Bob Hope Airport (KBUR)
Time Latitude Longitude Altitude Speed Heading
2026-05-05 21:04 35.04677 -106.61494 5334 ft 0 kts 10°
2026-05-05 21:17 35.04672 -106.61495 5334 ft 2 kts
2026-05-05 21:17 35.04656 -106.61498 5336 ft 2 kts
2026-05-05 21:17 35.04639 -106.61502 5337 ft 2 kts
2026-05-05 21:18 35.04623 -106.61505 5337 ft 2 kts
2026-05-05 21:18 35.04607 -106.61507 5335 ft 2 kts
2026-05-05 21:18 35.04590 -106.61507 5334 ft 2 kts 359°
2026-05-05 21:18 35.04574 -106.61511 5333 ft 2 kts 23°
2026-05-05 21:19 35.04560 -106.61522 5333 ft 2 kts 53°
2026-05-05 21:19 35.04555 -106.61533 5334 ft 0 kts 82°
2026-05-05 21:20 35.04556 -106.61528 5333 ft 4 kts 85°
2026-05-05 21:21 35.04555 -106.61435 5334 ft 16 kts 90°
2026-05-05 21:21 35.04581 -106.61301 5336 ft 16 kts 84°
2026-05-05 21:21 35.04582 -106.61160 5333 ft 17 kts 90°
2026-05-05 21:21 35.04562 -106.61055 5334 ft 12 kts 149°
2026-05-05 21:22 35.04454 -106.61055 5334 ft 20 kts 183°
2026-05-05 21:22 35.04322 -106.61065 5333 ft 18 kts 183°
2026-05-05 21:22 35.04244 -106.60993 5330 ft 16 kts 97°
2026-05-05 21:22 35.04242 -106.60909 5333 ft 8 kts 90°
2026-05-05 21:23 35.04242 -106.60822 5333 ft 13 kts 90°
2026-05-05 21:23 35.04226 -106.60712 5333 ft 13 kts 137°
2026-05-05 21:23 35.04151 -106.60743 5334 ft 14 kts 225°
2026-05-05 21:23 35.03995 -106.60932 5322 ft 65 kts 225°
2026-05-05 21:24 35.03506 -106.61519 5333 ft 132 kts 224°
2026-05-05 21:24 35.02715 -106.62477 5397 ft 181 kts 225°
2026-05-05 21:24 35.01773 -106.63531 6266 ft 185 kts 221°
2026-05-05 21:24 35.00984 -106.64727 7207 ft 184 kts 243°
2026-05-05 21:25 35.00696 -106.66330 7654 ft 209 kts 269°
2026-05-05 21:25 35.00865 -106.68173 7786 ft 229 kts 274°
2026-05-05 21:25 35.01064 -106.70077 8713 ft 227 kts 275°
2026-05-05 21:25 35.01270 -106.72096 9045 ft 253 kts 275°
2026-05-05 21:26 35.01495 -106.74293 8956 ft 267 kts 275°
2026-05-05 21:26 35.01846 -106.76563 9325 ft 276 kts 279°
2026-05-05 21:26 35.02246 -106.78827 10341 ft 276 kts 279°
2026-05-05 21:26 35.02657 -106.81194 10874 ft 295 kts 280°
2026-05-05 21:27 35.03128 -106.83696 11496 ft 308 kts 281°
2026-05-05 21:27 35.03613 -106.86278 12275 ft 314 kts 280°
2026-05-05 21:27 35.04096 -106.88875 13260 ft 315 kts 280°
2026-05-05 21:27 35.04575 -106.91466 14082 ft 318 kts 279°
2026-05-05 21:28 35.04712 -106.94141 14866 ft 316 kts 265°
2026-05-05 21:28 35.04635 -106.96840 15602 ft 320 kts 266°
2026-05-05 21:28 35.04560 -106.99567 16380 ft 322 kts 265°
2026-05-05 21:28 35.04482 -107.02308 17126 ft 325 kts 265°
2026-05-05 21:29 35.04402 -107.05077 17869 ft 327 kts 265°
2026-05-05 21:29 35.04320 -107.07864 18531 ft 330 kts 265°
2026-05-05 21:29 35.04238 -107.10664 19197 ft 331 kts 265°
2026-05-05 21:29 35.04155 -107.13472 19850 ft 332 kts 265°
2026-05-05 21:30 35.04070 -107.16298 20515 ft 333 kts 265°
2026-05-05 21:30 35.03984 -107.19129 21191 ft 334 kts 265°
2026-05-05 21:30 35.03897 -107.21968 21808 ft 336 kts 265°
2026-05-05 21:30 35.03810 -107.24824 22434 ft 338 kts 265°
2026-05-05 21:31 35.03722 -107.27697 23061 ft 339 kts 265°
2026-05-05 21:31 35.03634 -107.30582 23607 ft 341 kts 264°
2026-05-05 21:31 35.03545 -107.33477 24124 ft 342 kts 264°
2026-05-05 21:31 35.03455 -107.36384 24652 ft 342 kts 264°
2026-05-05 21:32 35.03364 -107.39285 25174 ft 343 kts 263°
2026-05-05 21:32 35.03274 -107.42161 25689 ft 343 kts 263°
2026-05-05 21:32 35.03182 -107.45073 26189 ft 344 kts 262°
2026-05-05 21:32 35.03089 -107.47988 26696 ft 344 kts 262°
2026-05-05 21:33 35.02995 -107.50912 27142 ft 345 kts 262°
2026-05-05 21:33 35.02901 -107.53837 27672 ft 346 kts 262°
2026-05-05 21:33 35.02805 -107.56771 28146 ft 347 kts 261°
2026-05-05 21:33 35.02708 -107.59716 28646 ft 347 kts 261°
2026-05-05 21:34 35.02610 -107.62662 29119 ft 348 kts 261°
2026-05-05 21:34 35.02512 -107.65620 29582 ft 349 kts 261°
2026-05-05 21:34 35.02412 -107.68587 30026 ft 350 kts 260°
2026-05-05 21:34 35.02312 -107.71565 30362 ft 352 kts 260°
2026-05-05 21:35 35.02211 -107.74558 30697 ft 354 kts 260°
2026-05-05 21:35 35.02107 -107.77564 31035 ft 355 kts 260°
2026-05-05 21:35 35.02003 -107.80569 31454 ft 354 kts 260°
2026-05-05 21:35 35.01899 -107.83569 31928 ft 352 kts 260°
2026-05-05 21:36 35.01795 -107.86545 32394 ft 350 kts 260°
2026-05-05 21:36 35.01690 -107.89506 32844 ft 348 kts 260°
2026-05-05 21:36 35.01586 -107.92453 33251 ft 347 kts 260°
2026-05-05 21:36 35.01482 -107.95348 33667 ft 345 kts 260°
2026-05-05 21:37 35.01377 -107.98264 34086 ft 343 kts 260°
2026-05-05 21:37 35.01271 -108.01176 34376 ft 343 kts 260°
2026-05-05 21:37 35.01165 -108.04087 34670 ft 343 kts 260°
2026-05-05 21:37 35.01058 -108.06996 34936 ft 344 kts 260°
2026-05-05 21:38 35.00950 -108.09914 35205 ft 344 kts 260°
2026-05-05 21:38 35.00842 -108.12832 35454 ft 345 kts 260°
2026-05-05 21:38 35.00732 -108.15757 35696 ft 345 kts 260°
2026-05-05 21:38 35.00622 -108.18682 35938 ft 345 kts 260°
2026-05-05 21:39 35.00511 -108.21610 36183 ft 346 kts 261°
2026-05-05 21:39 35.00399 -108.24543 36418 ft 346 kts 261°
2026-05-05 21:39 35.00286 -108.27479 36645 ft 347 kts 261°
2026-05-05 21:39 35.00172 -108.30422 36867 ft 348 kts 261°
2026-05-05 21:40 35.00057 -108.33369 37103 ft 348 kts 261°
2026-05-05 21:40 34.99942 -108.36314 37336 ft 348 kts 261°
2026-05-05 21:40 34.99826 -108.39267 37565 ft 348 kts 261°
2026-05-05 21:40 34.99710 -108.42182 37765 ft 349 kts 261°
2026-05-05 21:41 34.99473 -108.48102 37807 ft 348 kts 261°
2026-05-05 21:41 34.99234 -108.54002 37826 ft 348 kts 261°
2026-05-05 21:42 34.98992 -108.59903 37826 ft 348 kts 261°
2026-05-05 21:42 34.98747 -108.65807 37831 ft 349 kts 261°
2026-05-05 21:43 34.98499 -108.71727 37825 ft 349 kts 261°
2026-05-05 21:43 34.98249 -108.77617 37821 ft 350 kts 261°
2026-05-05 21:44 34.97995 -108.83548 37831 ft 350 kts 261°
2026-05-05 21:44 34.97737 -108.89482 37824 ft 350 kts 261°
2026-05-05 21:45 34.97476 -108.95425 37824 ft 351 kts 261°
2026-05-05 21:45 34.97213 -109.01371 37823 ft 351 kts 261°
2026-05-05 21:46 34.96947 -109.07325 37825 ft 352 kts 261°
2026-05-05 21:46 34.96679 -109.13285 37825 ft 352 kts 261°
2026-05-05 21:47 34.96303 -109.19230 37823 ft 351 kts 259°
2026-05-05 21:47 34.95911 -109.25135 37816 ft 352 kts 259°
2026-05-05 21:48 34.95517 -109.31089 37824 ft 352 kts 259°
2026-05-05 21:48 34.95120 -109.37053 37820 ft 353 kts 259°
2026-05-05 21:49 34.94787 -109.42015 37822 ft 354 kts 259°
2026-05-05 21:49 34.94383 -109.48006 37825 ft 354 kts 259°
2026-05-05 21:50 34.93910 -109.54967 37824 ft 355 kts 259°
2026-05-05 21:50 34.93565 -109.59997 37817 ft 355 kts 259°
2026-05-05 21:51 34.93153 -109.65968 37824 ft 356 kts 259°
2026-05-05 21:51 34.92735 -109.71984 37827 ft 357 kts 259°
2026-05-05 21:52 34.92102 -109.81022 37818 ft 357 kts 259°
2026-05-05 21:53 34.91675 -109.87065 37820 ft 358 kts 259°
2026-05-05 21:53 34.91244 -109.93113 37825 ft 358 kts 259°
2026-05-05 21:54 34.90810 -109.99163 37822 ft 359 kts 259°
2026-05-05 21:54 34.90372 -110.05224 37819 ft 359 kts 259°
2026-05-05 21:55 34.89933 -110.11258 37817 ft 360 kts 259°
2026-05-05 21:55 34.89488 -110.17334 37813 ft 360 kts 259°
2026-05-05 21:56 34.89039 -110.23422 37816 ft 361 kts 259°
2026-05-05 21:56 34.88586 -110.29525 37816 ft 361 kts 259°
2026-05-05 21:57 34.88129 -110.35634 37826 ft 362 kts 259°
2026-05-05 21:57 34.87673 -110.41706 37846 ft 363 kts 259°
2026-05-05 21:58 34.87211 -110.47827 37867 ft 363 kts 259°
2026-05-05 21:58 34.86740 -110.53958 37883 ft 364 kts 259°
2026-05-05 21:59 34.86266 -110.60100 37901 ft 364 kts 259°
2026-05-05 21:59 34.85788 -110.66257 37907 ft 365 kts 259°
2026-05-05 22:00 34.85309 -110.72383 37910 ft 365 kts 259°
2026-05-05 22:00 34.84825 -110.78551 37906 ft 366 kts 259°
2026-05-05 22:01 34.84335 -110.84730 37897 ft 366 kts 259°
2026-05-05 22:01 34.83844 -110.90907 37898 ft 367 kts 259°
2026-05-05 22:02 34.83347 -110.97104 37867 ft 367 kts 259°
2026-05-05 22:02 34.82847 -111.03295 37864 ft 368 kts 259°
2026-05-05 22:03 34.82344 -111.09491 37848 ft 368 kts 258°
2026-05-05 22:03 34.81836 -111.15708 37873 ft 369 kts 259°
2026-05-05 22:04 34.81325 -111.21918 37868 ft 369 kts 259°
2026-05-05 22:04 34.80810 -111.28145 37876 ft 370 kts 259°
2026-05-05 22:05 34.80290 -111.34387 37870 ft 371 kts 259°
2026-05-05 22:05 34.79769 -111.40591 37904 ft 371 kts 259°
2026-05-05 22:06 34.79242 -111.46853 37904 ft 372 kts 259°
2026-05-05 22:06 34.78712 -111.53107 37932 ft 372 kts 259°
2026-05-05 22:07 34.78176 -111.59379 37922 ft 373 kts 259°
2026-05-05 22:07 34.77637 -111.65654 37942 ft 373 kts 259°
2026-05-05 22:08 34.77094 -111.71944 37942 ft 373 kts 259°
2026-05-05 22:08 34.76547 -111.78225 37952 ft 374 kts 259°
2026-05-05 22:09 34.75998 -111.84500 37940 ft 375 kts 259°
2026-05-05 22:09 34.75444 -111.90798 37928 ft 375 kts 259°
2026-05-05 22:10 34.74886 -111.97104 37915 ft 375 kts 259°
2026-05-05 22:10 34.74323 -112.03419 37893 ft 375 kts 259°
2026-05-05 22:11 34.73758 -112.09744 37849 ft 376 kts 259°
2026-05-05 22:11 34.73187 -112.16066 37936 ft 377 kts 259°
2026-05-05 22:12 34.72616 -112.22377 37924 ft 377 kts 259°
2026-05-05 22:12 34.72038 -112.28705 37953 ft 377 kts 259°
2026-05-05 22:13 34.71458 -112.35047 37968 ft 377 kts 259°
2026-05-05 22:13 34.70875 -112.41388 37972 ft 377 kts 259°
2026-05-05 22:14 34.70313 -112.47693 37964 ft 379 kts 263°
2026-05-05 22:14 34.70511 -112.54144 37957 ft 383 kts 266°
2026-05-05 22:15 34.70754 -112.60630 37924 ft 384 kts 266°
2026-05-05 22:15 34.71004 -112.67110 37901 ft 384 kts 267°
2026-05-05 22:16 34.71251 -112.73594 37868 ft 384 kts 266°
2026-05-05 22:16 34.71495 -112.80079 37853 ft 384 kts 266°
2026-05-05 22:17 34.71737 -112.86582 37829 ft 385 kts 266°
2026-05-05 22:17 34.71974 -112.93085 37829 ft 385 kts 266°
2026-05-05 22:18 34.72207 -112.99557 37828 ft 386 kts 266°
2026-05-05 22:18 34.72439 -113.06072 37831 ft 386 kts 266°
2026-05-05 22:19 34.72667 -113.12589 37824 ft 386 kts 266°
2026-05-05 22:19 34.72891 -113.19116 37830 ft 386 kts 266°
2026-05-05 22:20 34.73112 -113.25640 37817 ft 386 kts 266°
2026-05-05 22:20 34.73331 -113.32161 37844 ft 387 kts 266°
2026-05-05 22:21 34.73543 -113.38650 37826 ft 386 kts 266°
2026-05-05 22:21 34.73754 -113.45177 37820 ft 387 kts 266°
2026-05-05 22:22 34.73961 -113.51710 37828 ft 387 kts 266°
2026-05-05 22:22 34.74166 -113.58246 37816 ft 387 kts 266°
2026-05-05 22:23 34.74366 -113.64783 37822 ft 386 kts 266°
2026-05-05 22:23 34.74563 -113.71305 37821 ft 386 kts 266°
2026-05-05 22:24 34.74757 -113.77838 37815 ft 387 kts 266°
2026-05-05 22:24 34.74947 -113.84373 37821 ft 386 kts 266°
2026-05-05 22:25 34.75133 -113.90933 37812 ft 387 kts 266°
2026-05-05 22:25 34.75315 -113.97411 37822 ft 386 kts 266°
2026-05-05 22:26 34.75495 -114.03954 37822 ft 386 kts 266°
2026-05-05 22:26 34.75671 -114.10489 37836 ft 386 kts 266°
2026-05-05 22:27 34.75844 -114.17027 37836 ft 386 kts 266°
2026-05-05 22:27 34.76013 -114.23565 37851 ft 386 kts 266°
2026-05-05 22:28 34.76179 -114.30098 37850 ft 386 kts 266°
2026-05-05 22:28 34.76342 -114.36624 37854 ft 386 kts 266°
2026-05-05 22:29 34.76502 -114.43149 37866 ft 386 kts 265°
2026-05-05 22:29 34.76654 -114.49674 37886 ft 386 kts 265°
2026-05-05 22:30 34.76803 -114.56202 37884 ft 386 kts 265°
2026-05-05 22:30 34.76949 -114.62694 37888 ft 386 kts 265°
2026-05-05 22:31 34.77092 -114.69225 37889 ft 386 kts 265°
2026-05-05 22:31 34.77231 -114.75745 37884 ft 385 kts 265°
2026-05-05 22:32 34.77367 -114.82270 37870 ft 385 kts 265°
2026-05-05 22:32 34.77499 -114.88775 37865 ft 385 kts 265°
2026-05-05 22:33 34.77629 -114.95289 37853 ft 384 kts 265°
2026-05-05 22:33 34.77755 -115.01782 37849 ft 384 kts 265°
2026-05-05 22:34 34.77878 -115.08242 37854 ft 384 kts 265°
2026-05-05 22:34 34.77998 -115.14729 37852 ft 383 kts 265°
2026-05-05 22:35 34.78115 -115.21219 37853 ft 383 kts 264°
2026-05-05 22:35 34.78228 -115.27691 37861 ft 383 kts 264°
2026-05-05 22:36 34.78319 -115.33070 37858 ft 383 kts 264°
2026-05-05 22:36 34.78426 -115.39523 37700 ft 378 kts 264°
2026-05-05 22:36 34.78477 -115.42712 37055 ft 377 kts 264°
2026-05-05 22:37 34.78527 -115.45897 36414 ft 377 kts 264°
2026-05-05 22:37 34.78577 -115.49080 35828 ft 376 kts 264°
2026-05-05 22:37 34.78625 -115.52261 35225 ft 376 kts 264°
2026-05-05 22:37 34.78673 -115.55444 34603 ft 376 kts 264°
2026-05-05 22:38 34.78719 -115.58625 33968 ft 379 kts 263°
2026-05-05 22:38 34.78767 -115.61862 33290 ft 386 kts 264°
2026-05-05 22:38 34.78814 -115.65155 32761 ft 392 kts 264°
2026-05-05 22:38 34.78861 -115.68490 32276 ft 396 kts 264°
2026-05-05 22:39 34.78907 -115.71834 31792 ft 394 kts 264°
2026-05-05 22:39 34.78953 -115.75155 31301 ft 390 kts 265°
2026-05-05 22:39 34.78997 -115.78439 30802 ft 386 kts 265°
2026-05-05 22:39 34.79043 -115.81686 30296 ft 382 kts 265°
2026-05-05 22:40 34.79108 -115.84911 29687 ft 380 kts 266°
2026-05-05 22:40 34.79170 -115.88115 29155 ft 376 kts 266°
2026-05-05 22:40 34.79230 -115.91227 28670 ft 371 kts 266°
2026-05-05 22:40 34.79287 -115.94340 28211 ft 366 kts 266°
2026-05-05 22:41 34.79345 -115.97412 27737 ft 361 kts 266°
2026-05-05 22:41 34.79400 -116.00448 27291 ft 357 kts 266°
2026-05-05 22:41 34.79454 -116.03454 26832 ft 354 kts 266°
2026-05-05 22:41 34.79506 -116.06451 26377 ft 357 kts 267°
2026-05-05 22:42 34.79559 -116.09487 25910 ft 362 kts 267°
2026-05-05 22:42 34.79612 -116.12561 25463 ft 363 kts 267°
2026-05-05 22:42 34.79665 -116.15638 25016 ft 363 kts 268°
2026-05-05 22:42 34.79716 -116.18709 24569 ft 362 kts 268°
2026-05-05 22:43 34.79766 -116.21764 24127 ft 361 kts 268°
2026-05-05 22:43 34.79746 -116.24809 23884 ft 360 kts 264°
2026-05-05 22:43 34.79634 -116.27855 23751 ft 360 kts 265°
2026-05-05 22:43 34.79533 -116.30901 23656 ft 360 kts 265°
2026-05-05 22:44 34.79436 -116.33943 23555 ft 360 kts 265°
2026-05-05 22:44 34.79340 -116.36986 23459 ft 359 kts 265°
2026-05-05 22:44 34.79245 -116.40019 23361 ft 359 kts 265°
2026-05-05 22:44 34.79149 -116.43058 23261 ft 359 kts 265°
2026-05-05 22:45 34.79052 -116.46094 23169 ft 358 kts 265°
2026-05-05 22:45 34.78956 -116.49080 23083 ft 358 kts 265°
2026-05-05 22:45 34.78859 -116.52098 22959 ft 357 kts 265°
2026-05-05 22:45 34.78754 -116.55128 22889 ft 356 kts 263°
2026-05-05 22:46 34.78475 -116.58111 22687 ft 354 kts 261°
2026-05-05 22:46 34.78189 -116.61079 22505 ft 353 kts 261°
2026-05-05 22:46 34.77911 -116.64045 22318 ft 353 kts 261°
2026-05-05 22:46 34.77638 -116.67007 22125 ft 352 kts 261°
2026-05-05 22:47 34.77365 -116.69963 21936 ft 351 kts 261°
2026-05-05 22:47 34.77078 -116.72903 21827 ft 350 kts 261°
2026-05-05 22:47 34.76791 -116.75839 21713 ft 349 kts 261°
2026-05-05 22:47 34.76504 -116.78775 21606 ft 349 kts 261°
2026-05-05 22:48 34.76217 -116.81709 21485 ft 348 kts 261°
2026-05-05 22:48 34.75930 -116.84634 21368 ft 348 kts 261°
2026-05-05 22:48 34.75642 -116.87512 21225 ft 347 kts 261°
2026-05-05 22:48 34.75349 -116.90426 21111 ft 347 kts 261°
2026-05-05 22:49 34.75055 -116.93343 20998 ft 346 kts 261°
2026-05-05 22:49 34.74762 -116.96244 20883 ft 346 kts 261°
2026-05-05 22:49 34.74468 -116.99151 20769 ft 345 kts 260°
2026-05-05 22:49 34.74174 -117.02043 20649 ft 345 kts 260°
2026-05-05 22:50 34.73880 -117.04936 20536 ft 344 kts 260°
2026-05-05 22:50 34.73589 -117.07786 20420 ft 344 kts 260°
2026-05-05 22:50 34.73295 -117.10667 20333 ft 343 kts 260°
2026-05-05 22:50 34.73000 -117.13543 20226 ft 343 kts 260°
2026-05-05 22:51 34.72704 -117.16424 20123 ft 343 kts 260°
2026-05-05 22:51 34.72409 -117.19293 20014 ft 342 kts 260°
2026-05-05 22:51 34.72113 -117.22161 19916 ft 342 kts 260°
2026-05-05 22:51 34.71816 -117.25028 19804 ft 341 kts 260°
2026-05-05 22:52 34.71520 -117.27888 19696 ft 341 kts 260°
2026-05-05 22:52 34.71223 -117.30742 19596 ft 340 kts 260°
2026-05-05 22:52 34.70926 -117.33596 19485 ft 340 kts 260°
2026-05-05 22:52 34.70629 -117.36444 19374 ft 340 kts 260°
2026-05-05 22:53 34.70331 -117.39292 19262 ft 339 kts 260°
2026-05-05 22:53 34.70033 -117.42135 19147 ft 339 kts 260°
2026-05-05 22:53 34.69735 -117.44977 19038 ft 339 kts 260°
2026-05-05 22:53 34.69433 -117.47824 18703 ft 337 kts 260°
2026-05-05 22:54 34.69138 -117.50606 18380 ft 336 kts 260°
2026-05-05 22:54 34.68839 -117.53425 18006 ft 336 kts 260°
2026-05-05 22:54 34.68539 -117.56240 17634 ft 335 kts 260°
2026-05-05 22:54 34.68239 -117.59049 17274 ft 335 kts 260°
2026-05-05 22:55 34.67941 -117.61852 16911 ft 334 kts 260°
2026-05-05 22:55 34.67647 -117.64643 16525 ft 332 kts 260°
2026-05-05 22:55 34.67352 -117.67426 16189 ft 332 kts 260°
2026-05-05 22:55 34.67058 -117.70202 15859 ft 331 kts 260°
2026-05-05 22:56 34.66763 -117.72974 15499 ft 330 kts 260°
2026-05-05 22:56 34.66469 -117.75734 15168 ft 329 kts 260°
2026-05-05 22:56 34.66176 -117.78479 14864 ft 327 kts 260°
2026-05-05 22:56 34.65883 -117.81214 14538 ft 326 kts 260°
2026-05-05 22:57 34.65590 -117.83940 14207 ft 324 kts 260°
2026-05-05 22:57 34.65299 -117.86649 13916 ft 323 kts 260°
2026-05-05 22:57 34.65008 -117.89321 13554 ft 322 kts 261°
2026-05-05 22:57 34.64715 -117.92011 13232 ft 318 kts 261°
2026-05-05 22:58 34.64425 -117.94668 12941 ft 318 kts 261°
2026-05-05 22:58 34.64135 -117.97325 12643 ft 316 kts 260°
2026-05-05 22:58 34.63845 -117.99970 12340 ft 315 kts 261°
2026-05-05 22:58 34.63557 -118.02596 12034 ft 313 kts 261°
2026-05-05 22:59 34.63273 -118.05177 11733 ft 310 kts 261°
2026-05-05 22:59 34.62838 -118.07695 11403 ft 299 kts 253°
2026-05-05 22:59 34.62270 -118.10110 11097 ft 295 kts 254°
2026-05-05 22:59 34.61729 -118.12487 10815 ft 290 kts 255°
2026-05-05 23:00 34.60695 -118.17128 10249 ft 274 kts 255°
2026-05-05 23:00 34.60208 -118.19342 9980 ft 269 kts 255°
2026-05-05 23:00 34.59729 -118.21522 9698 ft 266 kts 256°
2026-05-05 23:01 34.59252 -118.23691 9388 ft 266 kts 255°
2026-05-05 23:01 34.58776 -118.25853 9122 ft 264 kts 255°
2026-05-05 23:01 34.58304 -118.28002 8846 ft 263 kts 255°
2026-05-05 23:01 34.57834 -118.30140 8573 ft 261 kts 255°
2026-05-05 23:02 34.57367 -118.32264 8334 ft 260 kts 254°
2026-05-05 23:02 34.56900 -118.34383 8067 ft 259 kts 254°
2026-05-05 23:02 34.56434 -118.36477 7975 ft 256 kts 254°
2026-05-05 23:02 34.55972 -118.38534 7945 ft 257 kts 254°
2026-05-05 23:03 34.55496 -118.40650 7960 ft 257 kts 254°
2026-05-05 23:03 34.54841 -118.42624 7829 ft 256 kts 235°
2026-05-05 23:03 34.53559 -118.44109 7704 ft 258 kts 218°
2026-05-05 23:03 34.52087 -118.45354 7564 ft 257 kts 217°
2026-05-05 23:04 34.50608 -118.46578 7406 ft 257 kts 217°
2026-05-05 23:04 34.49121 -118.47789 7231 ft 258 kts 216°
2026-05-05 23:04 34.47623 -118.48985 7076 ft 258 kts 216°
2026-05-05 23:04 34.46123 -118.50159 6898 ft 257 kts 215°
2026-05-05 23:05 34.44622 -118.51329 6747 ft 256 kts 215°
2026-05-05 23:05 34.43120 -118.52499 6563 ft 256 kts 215°
2026-05-05 23:05 34.41618 -118.53667 6422 ft 256 kts 215°
2026-05-05 23:05 34.40120 -118.54830 6252 ft 256 kts 216°
2026-05-05 23:06 34.38625 -118.55990 6089 ft 255 kts 215°
2026-05-05 23:06 34.37080 -118.57049 5915 ft 258 kts 201°
2026-05-05 23:06 34.35289 -118.57305 5688 ft 263 kts 183°
2026-05-05 23:06 34.33459 -118.57261 5493 ft 263 kts 183°
2026-05-05 23:07 34.31638 -118.57220 5291 ft 260 kts 182°
2026-05-05 23:07 34.29869 -118.57170 5154 ft 255 kts 183°
2026-05-05 23:07 34.28121 -118.57062 4873 ft 247 kts 181°
2026-05-05 23:07 34.26432 -118.56935 4568 ft 238 kts 181°
2026-05-05 23:08 34.24819 -118.56816 4296 ft 227 kts 181°
2026-05-05 23:08 34.23284 -118.56561 4060 ft 221 kts 169°
2026-05-05 23:08 34.21897 -118.55835 3789 ft 217 kts 150°
2026-05-05 23:08 34.20815 -118.54590 3519 ft 212 kts 129°
2026-05-05 23:09 34.20169 -118.53039 3284 ft 202 kts 111°
2026-05-05 23:09 34.19937 -118.51393 3079 ft 194 kts 96°
2026-05-05 23:09 34.19932 -118.49798 2906 ft 185 kts 94°
2026-05-05 23:09 34.19931 -118.48311 2672 ft 169 kts 95°
2026-05-05 23:10 34.19916 -118.46939 2466 ft 159 kts 97°
2026-05-05 23:10 34.19900 -118.45623 2235 ft 156 kts 97°
2026-05-05 23:10 34.19881 -118.44329 2029 ft 156 kts 95°
2026-05-05 23:10 34.19868 -118.43000 1822 ft 155 kts 96°
2026-05-05 23:11 34.19850 -118.41715 1631 ft 151 kts 93°
2026-05-05 23:11 34.19837 -118.40458 1411 ft 150 kts 95°
2026-05-05 23:11 34.19822 -118.39201 1204 ft 146 kts 94°
2026-05-05 23:11 34.19805 -118.37984 967 ft 146 kts 96°
2026-05-05 23:12 34.19792 -118.36753 744 ft 146 kts 95°
2026-05-05 23:12 34.19775 -118.35760 699 ft 63 kts 91°
2026-05-05 23:12 34.19768 -118.35533 692 ft 17 kts 103°
2026-05-05 23:12 34.19731 -118.35410 696 ft 12 kts 108°
2026-05-05 23:13 34.19720 -118.35343 696 ft 0 kts 90°
2026-05-05 23:13 34.19720 -118.35334 698 ft 4 kts 90°
2026-05-05 23:13 34.19712 -118.35292 698 ft 5 kts 136°
2026-05-05 23:14 34.19684 -118.35286 698 ft 2 kts 179°
2026-05-05 23:14 34.19680 -118.35286 694 ft 0 kts 179°